Location: Auckland
(36.8670°S, 174.7670°E)
Time: 01:03:32
(UTC+12:00)

Courier 1B Rocket - Pass Details

Date: 20 July 2019
Orbit: 920 x 1202 km, 28.3° (Epoch: 22 August)

Event Time Altitude Azimuth Distance (km) Brightness Sun altitude
Rises 10:49:13 0° 278° (W) 3,791 7.9 27.9°
Reaches altitude 10° 10:53:16 10° 300° (WNW) 2,773 7.5 28.3°
Maximum altitude 10:56:52 15° 333° (NNW) 2,365 7.7 28.6°
Drops below altitude 10° 11:00:22 10° 6° (N) 2,674 8.7 28.8°
Sets 11:04:09 0° 28° (NNE) 3,577 9.2 29.1°
